Wind_Speed
29 28 28 28 27 27 28 29 28 27 27 25 24 23 22 22 21 21 21 21 20 20 20 20 20 20 20 21 20 20 19 19 19 19 20 20 20 21 21 21 21 22 22 22
30 29 29 29 29 29 29 29 29 28 27 26 26 25 24 24 23 23 23 23 22 22 22 22 21 21 21 21 21 21 21 21 22 22 22 22 22 22 23 23 24 23 23 23
30 30 31 32 30 30 30 30 30 30 29 28 28 28 27 26 26 26 26 25 25 25 25 25 24 23 23 23 23 23 24 24 24 24 24 24 24 24 24 25 25 24 25 25
31 32 34 32 31 31 31 31 31 31 30 30 30 29 29 29 28 28 28 27 27 27 26 27 27 26 26 25 25 25 25 25 26 26 26 26 26 26 26 26 26 27 27 27
32 33 33 32 32 32 32 32 32 31 30 30 30 30 30 30 30 30 30 30 30 30 30 29 28 29 29 28 27 27 28 28 28 28 28 28 28 28 28 28 28 28 28 29
32 33 33 32 32 32 33 33 32 32 32 31 31 32 32 31 32 31 32 32 32 32 32 31 31 31 31 31 31 31 31 31 31 31 31 30 30 30 30 30 30 30 30 31
32 33 34 33 32 31 33 33 32 33 33 33 32 32 32 32 32 33 33 32 32 32 33 33 33 33 33 34 34 34 34 34 34 34 34 34 34 33 32 32 31 31 32 32
33 34 35 33 33 33 33 33 33 33 34 34 33 33 34 34 33 33 33 33 33 34 34 35 35 35 36 37 37 36 36 36 36 36 36 36 36 35 35 34 34 33 33 34
35 34 34 34 34 34 34 34 34 34 34 34 34 34 34 35 34 34 34 34 35 35 36 36 37 37 38 38 38 38 38 37 37 37 37 37 37 37 37 37 36 35 34 34
35 33 33 34 34 34 33 33 34 34 34 34 33 34 35 35 35 36 36 36 36 37 37 37 37 37 38 38 38 39 38 38 38 38 38 39 39 39 38 38 37 36 35 34
34 33 33 33 34 33 31 31 32 33 33 34 34 34 35 35 36 37 38 38 38 38 37 37 38 38 39 39 39 39 38 38 38 39 39 39 39 39 39 38 36 36 36 36
33 32 32 31 31 31 30 30 31 32 33 34 35 36 36 37 37 38 38 39 39 39 39 39 39 39 39 40 40 39 39 38 39 39 39 39 39 39 38 37 36 36 36 35
32 31 30 30 31 31 31 31 31 32 33 34 35 36 37 38 38 38 38 38 39 39 39 39 39 39 39 39 39 39 39 39 39 38 38 38 38 38 38 37 37 37 36 36
29 28 28 29 30 30 30 30 31 32 33 34 35 35 36 38 38 38 37 37 38 38 38 38 38 38 38 38 37 38 38 38 38 38 38 38 38 38 38 37 38 37 36 37
28 28 27 27 28 29 29 29 30 31 32 34 35 35 36 37 37 37 37 37 36 37 37 37 38 37 37 37 37 37 37 37 37 37 37 37 37 38 37 37 37 37 37 37
27 28 27 27 27 28 29 29 30 30 31 31 33 34 34 35 35 35 36 37 36 36 35 35 35 36 37 36 36 37 37 37 37 37 37 37 37 37 37 36 36 37 37 37
26 26 27 27 28 28 28 29 29 29 30 31 32 33 33 33 34 34 35 36 36 35 34 34 34 34 35 36 36 36 36 36 37 37 37 37 37 37 37 36 37 37 36 35
25 25 26 27 27 28 28 28 28 29 29 30 31 31 31 31 32 32 33 34 34 34 33 33 33 33 34 35 35 35 36 36 36 36 36 37 36 36 36 36 36 35 34 34
25 25 26 26 26 27 28 28 28 29 29 29 29 29 29 30 30 30 31 32 33 33 33 33 32 32 33 34 34 34 35 35 35 36 36 36 36 36 35 35 35 35 35 34
25 26 26 27 27 27 27 27 28 27 27 28 28 28 29 30 30 30 30 30 30 30 31 32 32 32 32 32 33 33 33 34 34 35 34 35 35 35 34 34 35 34 34 33
25 25 26 27 27 27 27 27 27 27 28 28 28 27 27 28 29 29 29 29 29 30 30 30 30 31 31 32 32 32 33 33 33 33 33 33 33 33 33 33 33 33 33 32
24 25 25 25 24 25 25 25 26 26 27 28 28 28 28 28 28 29 29 29 30 30 29 29 30 30 30 31 31 32 32 32 31 31 32 32 32 32 32 32 32 32 32 32
22 23 22 22 22 22 23 24 24 25 25 26 26 27 27 27 27 27 27 27 28 29 29 29 30 29 30 30 31 31 31 30 30 31 31 31 31 31 30 31 31 31 31 30
21 21 21 21 21 21 22 23 23 24 24 24 24 25 26 26 27 27 28 28 27 27 28 28 28 28 29 30 30 29 29 29 29 29 29 29 29 29 30 29 30 30 30 30
19 19 20 20 20 20 21 21 22 22 23 23 24 24 25 25 26 26 26 26 27 27 27 27 27 28 28 29 28 28 28 28 28 28 28 27 27 28 28 28 28 28 28 29
18 19 19 20 20 20 20 20 20 21 21 22 22 23 24 24 24 24 24 25 25 25 25 25 26 26 26 26 26 26 27 27 27 27 27 27 27 27 27 27 27 26 26 26
18 18 19 19 19 19 19 19 20 20 20 21 21 22 23 23 24 24 24 24 23 23 23 23 23 24 24 24 24 25 25 24 24 25 25 25 25 26 25 25 25 25 25 24
Wind_Direction
242 243 245 246 249 252 254 256 258 260 262 260 261 265 264 264 265 267 268 270 273 271 272 277 277 279 283 287 290 293 296 297 297 298 300 301 301 300 300 300 300 302 301 299
245 245 246 247 249 252 255 257 259 261 263 262 263 265 265 264 265 267 267 267 270 270 273 275 277 279 282 284 288 292 294 294 295 295 297 298 298 298 298 299 298 299 300 299
248 248 249 249 250 254 256 257 259 262 264 265 266 267 267 267 265 267 266 265 265 268 269 270 272 276 279 280 283 286 288 290 292 293 293 294 296 297 297 298 298 296 296 296
250 251 251 252 253 255 256 256 258 260 262 263 266 267 267 268 268 266 265 263 263 265 265 268 271 273 277 279 281 284 287 289 290 289 290 291 292 294 294 295 295 294 293 293
252 253 255 254 253 254 257 256 257 259 260 263 265 265 265 265 267 267 265 264 264 266 267 268 269 273 275 278 281 283 285 286 288 289 289 289 290 291 292 292 292 292 292 291
253 255 256 257 257 258 259 259 259 260 261 262 263 263 264 263 264 265 265 265 265 267 269 270 272 275 277 277 280 282 282 283 284 285 285 285 287 288 289 290 290 291 291 290
253 257 259 260 260 260 260 262 263 262 262 262 261 262 262 261 262 264 266 266 266 267 269 271 274 276 278 280 280 280 281 283 284 284 285 286 288 288 288 288 288 289 289 290
254 257 260 262 263 263 265 264 263 264 263 262 262 262 260 260 261 263 263 265 266 267 269 272 273 276 278 279 280 279 280 281 282 283 284 285 286 287 287 286 286 287 288 289
256 258 261 262 263 264 265 264 264 265 264 263 261 261 261 261 261 262 264 266 268 268 270 272 274 276 277 278 279 279 279 280 281 282 283 284 284 285 286 286 286 287 288 289
257 259 260 262 263 263 264 264 263 263 261 260 260 261 262 262 262 264 266 268 270 271 272 274 276 277 278 277 278 279 279 279 280 281 281 282 282 283 284 285 284 286 287 288
257 258 259 261 263 263 264 263 261 261 260 261 262 262 263 264 264 266 268 269 270 271 273 274 275 276 278 278 279 279 279 279 279 280 281 282 283 283 284 285 283 284 285 286
256 257 258 260 261 262 263 262 260 260 262 261 262 262 263 264 265 267 268 269 270 271 272 273 274 276 277 278 279 280 280 280 280 280 281 281 282 283 284 285 286 286 285 286
256 256 257 258 260 262 262 263 262 261 262 263 263 264 264 265 266 267 269 269 270 271 272 273 274 275 277 278 279 280 281 281 282 282 281 281 281 283 285 285 286 286 285 285
256 257 256 258 258 261 263 264 265 265 265 266 266 265 265 267 267 269 270 271 272 272 272 272 274 275 276 278 279 280 282 282 283 283 282 281 282 283 284 284 284 285 285 285
257 256 256 256 258 260 264 267 268 269 269 269 268 267 267 268 268 269 270 272 274 275 274 273 273 275 276 278 280 281 282 282 282 282 281 282 283 283 283 284 284 284 285 285
257 256 256 258 261 264 266 268 269 270 271 271 270 269 268 269 269 269 271 272 273 276 275 275 275 276 277 278 280 281 281 281 281 281 281 282 283 282 282 283 283 284 285 285
259 257 259 261 263 266 269 269 270 271 272 272 272 270 270 270 271 271 271 273 274 275 276 277 278 278 278 279 280 281 282 282 281 281 282 282 284 283 282 282 283 283 284 284
263 262 262 263 265 267 271 272 272 273 274 275 275 274 273 272 273 273 273 274 275 275 277 278 278 279 279 280 280 281 282 283 283 282 281 282 283 284 285 284 283 282 281 282
263 265 265 267 269 269 270 273 273 273 275 276 277 277 276 276 274 274 275 276 276 277 277 278 278 279 280 281 281 282 283 284 285 283 283 283 283 283 284 284 282 281 280 281
266 267 269 269 271 272 273 274 274 274 275 277 278 278 277 276 275 276 276 278 279 280 280 280 280 281 282 283 283 283 284 285 286 286 285 284 283 282 282 283 284 283 282 281
265 267 269 271 272 272 273 274 274 274 274 276 277 279 279 279 279 277 277 278 280 281 282 283 283 283 284 285 285 286 286 287 289 288 288 286 283 282 282 282 282 282 283 281
267 269 271 273 274 273 274 275 275 274 274 276 277 279 281 283 283 281 279 279 281 282 283 284 284 285 286 286 285 285 286 287 287 288 289 289 286 284 283 281 282 282 282 282
268 271 272 273 274 275 276 277 277 276 276 276 278 280 280 282 283 284 284 284 283 283 284 285 286 286 286 286 287 287 287 286 287 288 290 291 289 286 283 282 282 283 283 283
273 275 277 276 277 279 280 280 280 279 278 278 279 281 282 283 284 285 285 286 286 286 286 286 287 287 287 287 287 288 288 288 287 288 289 290 290 287 285 283 283 284 283 284
274 275 276 278 279 281 283 284 285 286 284 282 282 283 284 285 286 286 286 286 286 286 287 287 287 287 288 289 288 288 289 288 288 288 288 289 289 289 287 286 285 286 286 285
274 275 278 280 283 284 284 286 287 288 289 287 285 284 284 285 286 287 289 290 289 288 288 289 289 290 291 290 289 289 289 289 289 289 290 290 290 290 289 287 285 286 287 286
278 279 280 281 283 285 286 288 289 288 289 290 289 287 286 287 288 289 290 290 289 288 288 288 290 292 292 292 291 291 292 293 293 293 293 294 294 293 291 289 289 289 288 287
Height
5868 5870 5872 5874 5876 5877 5878 5879 5881 5882 5884 5886 5887 5888 5889 5890 5890 5890 5891 5891 5890 5890 5889 5889 5888 5887 5886 5885 5883 5882 5881 5879 5878 5877 5875 5873 5872 5870 5868 5866 5864 5862 5860 5858
5861 5864 5865 5867 5869 5871 5872 5874 5875 5876 5878 5879 5880 5882 5883 5884 5884 5885 5885 5885 5885 5884 5884 5884 5884 5883 5882 5880 5879 5877 5876 5874 5873 5872 5870 5868 5867 5865 5863 5861 5858 5856 5854 5852
5854 5857 5858 5860 5862 5864 5866 5867 5869 5870 5872 5872 5873 5875 5876 5877 5878 5878 5879 5879 5879 5878 5878 5878 5878 5877 5876 5875 5874 5872 5871 5869 5867 5866 5864 5862 5860 5859 5857 5855 5852 5850 5848 5846
5847 5850 5850 5855 5856 5857 5858 5860 5861 5863 5864 5865 5866 5868 5869 5870 5871 5871 5872 5872 5871 5871 5871 5871 5871 5870 5869 5869 5867 5866 5864 5862 5861 5859 5857 5856 5854 5852 5850 5848 5846 5844 5841 5839
5840 5841 5842 5846 5848 5849 5851 5852 5854 5855 5857 5858 5859 5860 5861 5862 5863 5863 5864 5864 5864 5863 5863 5863 5863 5863 5862 5861 5860 5859 5857 5855 5854 5852 5850 5848 5846 5844 5842 5840 5838 5836 5834 5832
5832 5833 5835 5839 5840 5841 5843 5844 5846 5847 5849 5850 5850 5851 5853 5853 5854 5854 5855 5855 5855 5855 5855 5855 5855 5854 5854 5853 5852 5851 5849 5848 5846 5844 5842 5840 5838 5836 5834 5832 5830 5828 5826 5824
5824 5825 5827 5830 5832 5833 5835 5837 5838 5838 5840 5841 5841 5843 5844 5845 5845 5846 5846 5846 5847 5847 5847 5847 5847 5846 5845 5844 5843 5842 5840 5839 5837 5835 5833 5831 5829 5827 5825 5823 5821 5819 5818 5816
5816 5818 5822 5822 5823 5825 5826 5827 5828 5828 5830 5831 5832 5833 5834 5835 5836 5837 5837 5837 5838 5838 5838 5837 5837 5836 5835 5834 5833 5831 5830 5829 5827 5825 5824 5822 5820 5818 5816 5814 5812 5810 5808 5806
5809 5812 5812 5813 5814 5815 5816 5817 5817 5818 5820 5821 5822 5823 5824 5825 5826 5827 5827 5828 5828 5828 5828 5827 5827 5826 5825 5823 5822 5821 5819 5818 5817 5815 5813 5811 5810 5808 5806 5804 5802 5800 5798 5796
5800 5801 5803 5804 5805 5806 5807 5807 5808 5809 5810 5811 5812 5814 5815 5816 5816 5817 5817 5817 5817 5817 5817 5816 5816 5815 5814 5812 5811 5810 5809 5807 5805 5804 5803 5801 5799 5797 5795 5793 5791 5789 5787 5785
5791 5792 5793 5795 5796 5797 5798 5798 5799 5800 5801 5801 5802 5803 5804 5805 5805 5806 5806 5807 5807 5806 5806 5805 5805 5804 5802 5801 5800 5799 5797 5796 5794 5793 5791 5790 5788 5786 5784 5782 5780 5779 5777 5775
5783 5784 5785 5787 5787 5788 5788 5789 5790 5791 5791 5792 5792 5793 5794 5794 5795 5795 5795 5795 5795 5795 5795 5794 5793 5792 5791 5790 5789 5787 5786 5784 5783 5781 5780 5778 5776 5775 5772 5771 5769 5767 5766 5764
5773 5775 5776 5777 5778 5779 5780 5780 5781 5781 5782 5782 5782 5782 5783 5783 5783 5783 5784 5784 5783 5783 5783 5782 5782 5781 5780 5779 5777 5776 5774 5772 5771 5769 5768 5767 5765 5764 5762 5760 5758 5756 5754 5753
5764 5765 5767 5769 5770 5770 5771 5771 5772 5772 5772 5772 5772 5772 5772 5772 5772 5772 5772 5772 5772 5771 5771 5771 5770 5769 5768 5767 5766 5764 5763 5761 5759 5758 5757 5755 5754 5753 5751 5749 5748 5745 5743 5741
5756 5757 5759 5761 5761 5762 5762 5762 5762 5762 5762 5762 5761 5761 5761 5761 5762 5761 5761 5761 5760 5760 5760 5759 5758 5757 5756 5755 5754 5753 5751 5750 5748 5747 5746 5744 5743 5741 5740 5738 5736 5735 5733 5731
5749 5750 5751 5753 5753 5753 5753 5753 5753 5753 5752 5751 5751 5750 5750 5750 5751 5750 5750 5750 5750 5750 5749 5748 5747 5746 5745 5744 5743 5742 5741 5739 5738 5736 5735 5733 5732 5730 5728 5727 5725 5723 5722 5720
5742 5743 5744 5745 5745 5745 5745 5745 5744 5744 5743 5742 5741 5741 5740 5740 5740 5740 5740 5739 5739 5739 5739 5738 5736 5735 5734 5733 5732 5731 5729 5728 5727 5725 5724 5723 5721 5719 5717 5716 5714 5712 5711 5709
5735 5736 5736 5737 5737 5737 5737 5736 5736 5735 5734 5733 5732 5732 5731 5731 5730 5730 5729 5729 5729 5729 5728 5727 5726 5725 5724 5722 5721 5720 5719 5717 5716 5714 5713 5711 5710 5708 5706 5704 5703 5701 5700 5698
5728 5729 5729 5729 5729 5729 5728 5728 5727 5727 5726 5725 5724 5723 5722 5721 5721 5720 5720 5719 5719 5718 5718 5717 5716 5715 5714 5712 5711 5709 5708 5707 5705 5703 5702 5700 5699 5697 5695 5693 5692 5690 5689 5688
5722 5722 5722 5721 5721 5721 5720 5719 5719 5718 5717 5717 5716 5715 5714 5713 5712 5711 5711 5710 5709 5709 5708 5707 5706 5705 5704 5702 5701 5700 5698 5697 5695 5693 5691 5690 5688 5687 5685 5683 5681 5680 5679 5677
5715 5714 5714 5713 5713 5713 5712 5711 5711 5710 5709 5708 5708 5707 5705 5704 5703 5702 5702 5701 5701 5700 5699 5697 5696 5695 5694 5693 5692 5690 5689 5687 5685 5683 5681 5679 5677 5676 5675 5673 5672 5671 5669 5668
5707 5707 5706 5706 5705 5705 5704 5704 5703 5702 5701 5700 5699 5698 5697 5696 5695 5693 5692 5692 5691 5690 5689 5688 5687 5686 5685 5683 5682 5681 5679 5677 5675 5673 5671 5669 5667 5666 5665 5664 5662 5661 5660 5658
5700 5700 5699 5698 5698 5697 5697 5696 5695 5694 5693 5692 5691 5690 5689 5688 5687 5685 5684 5683 5682 5681 5680 5679 5678 5677 5675 5674 5673 5671 5670 5668 5666 5664 5662 5660 5658 5656 5655 5654 5653 5652 5650 5649
5694 5693 5692 5692 5691 5691 5690 5689 5688 5687 5685 5684 5683 5683 5682 5680 5679 5678 5677 5675 5674 5673 5672 5671 5669 5668 5666 5665 5664 5662 5661 5659 5657 5655 5653 5651 5649 5647 5646 5645 5643 5642 5641 5640
5688 5687 5687 5686 5685 5685 5684 5682 5681 5680 5678 5677 5676 5675 5674 5673 5672 5671 5669 5668 5666 5665 5664 5662 5661 5659 5658 5656 5655 5653 5652 5650 5648 5646 5645 5643 5641 5639 5637 5636 5634 5633 5632 5630
5682 5682 5681 5680 5679 5679 5677 5676 5675 5674 5672 5671 5670 5669 5667 5666 5665 5663 5662 5660 5659 5657 5656 5655 5653 5651 5649 5648 5646 5645 5643 5641 5640 5638 5636 5634 5632 5631 5629 5627 5626 5624 5623 5621
5676 5676 5675 5675 5674 5673 5672 5670 5669 5668 5666 5665 5664 5662 5661 5659 5658 5656 5655 5653 5652 5650 5649 5647 5646 5644 5642 5640 5639 5637 5635 5634 5632 5630 5628 5627 5625 5623 5621 5619 5617 5616 5614 5613